Wind_Gust
14 13 13 12 11 11 11 10 11 10 11 12 13 12 15 12 10 9 9 10 10 12 14 15 16 17 14 17 17 17 17 19 21 19 18 19 18 18 19 19 18 18
14 13 13 12 11 11 10 11 10 10 11 10 10 9 9 9 9 9 9 13 13 13 12 12 14 17 16 16 16 16 18 18 19 19 21 20 19 19 19 19 19 19
14 13 13 12 12 12 11 10 10 10 10 10 9 9 9 8 13 10 11 13 14 14 13 14 13 16 16 16 15 18 20 20 20 20 20 21 21 22 21 20 20 20
14 14 14 13 12 13 11 11 10 10 9 9 9 10 10 9 9 9 11 11 11 14 14 12 13 17 16 17 18 20 20 20 20 18 19 20 20 22 22 21 23 23
14 14 14 13 13 12 12 12 12 12 11 10 10 10 9 10 9 9 8 8 8 11 11 13 12 15 13 15 17 20 18 21 20 20 20 21 21 21 21 21 22 23
14 15 14 14 13 13 13 13 13 13 13 10 9 10 9 9 10 9 7 9 8 8 10 12 10 12 16 15 17 18 19 21 21 21 22 22 21 22 22 22 22 24
16 15 14 15 13 13 13 13 13 13 13 13 12 10 10 10 12 11 10 8 9 9 11 12 11 13 16 15 16 17 19 19 20 22 24 23 21 21 22 22 25 25
16 14 14 14 13 12 12 13 12 12 12 13 13 13 11 13 15 14 11 11 11 11 11 11 10 11 12 12 15 17 17 17 18 20 21 23 22 22 21 21 21 25
15 14 14 13 13 12 11 12 11 11 11 12 14 15 15 14 13 14 14 13 14 13 12 12 12 12 12 14 14 14 15 18 18 19 21 21 22 23 23 21 22 22
14 13 12 11 11 10 11 10 11 11 10 11 12 12 14 14 16 16 16 14 14 15 15 14 14 13 13 13 14 14 15 16 19 21 19 20 20 20 21 21 22 22
14 13 12 11 11 10 11 11 10 11 11 11 10 12 13 13 14 16 16 16 15 17 17 18 18 18 18 16 15 14 16 17 16 17 17 18 18 18 16 19 20 21
13 13 13 12 11 11 11 11 12 11 11 11 11 13 13 14 15 15 16 18 19 19 17 17 18 19 20 19 18 17 17 17 17 17 17 17 16 18 20 20 21 21
13 13 14 12 11 11 11 11 12 12 12 12 12 12 12 14 15 17 16 17 17 19 21 21 20 19 19 19 19 20 20 19 18 19 19 18 16 17 16 17 21 21
13 13 13 13 12 12 11 11 12 12 13 14 13 12 13 14 15 15 15 16 17 17 18 18 20 22 21 22 22 21 20 20 20 19 19 19 16 15 15 16 17 19
13 12 11 12 14 12 13 14 15 14 15 14 14 14 13 13 13 14 15 16 16 16 17 17 17 18 19 21 22 24 23 22 22 21 18 17 16 16 16 17 17 19
14 13 12 12 14 14 15 16 16 14 14 15 15 15 15 15 14 13 12 13 14 14 14 15 16 16 11 12 11 15 18 21 22 22 21 20 18 17 16 17 17 18
14 14 12 12 14 14 15 17 17 16 15 15 15 16 16 15 15 14 12 10 12 13 12 13 14 13 12 12 13 13 15 17 18 20 21 22 21 19 17 16 17 18
14 14 13 13 14 15 17 16 15 15 15 16 17 17 16 16 14 15 13 8 8 11 11 14 17 19 15 14 12 13 11 16 19 20 20 21 21 22 21 18 17 17
14 14 14 14 15 16 16 15 15 15 16 17 17 17 17 16 16 15 15 15 9 13 19 20 19 19 15 14 13 13 14 13 18 18 19 19 21 22 22 21 19 19
14 14 13 14 15 16 16 16 16 17 16 16 16 17 16 16 16 16 16 16 16 18 19 21 19 18 16 14 14 14 14 12 17 17 17 18 19 19 19 20 20 20
14 13 14 15 15 16 15 16 17 17 17 17 16 16 16 17 16 16 16 16 15 16 18 19 19 19 18 16 17 16 15 11 15 16 16 17 18 18 19 19 20 21
14 14 15 15 15 16 16 17 17 17 17 17 16 16 15 15 16 16 17 17 16 16 14 17 17 19 17 16 16 18 18 18 14 12 14 15 16 17 18 19 20 20
14 14 14 15 15 16 17 17 18 17 17 17 16 16 15 16 15 15 15 16 17 17 16 13 15 16 16 16 17 19 15 13 12 14 15 15 16 17 19 19 20 21
14 14 15 16 16 17 18 18 17 17 17 16 15 15 16 15 14 14 15 15 16 16 18 13 14 16 16 15 15 18 18 15 12 14 14 16 18 18 20 21 21 19
13 13 15 16 18 18 18 18 18 18 17 16 15 14 15 14 15 14 15 15 16 16 17 16 14 15 14 13 14 15 20 16 14 16 14 15 16 18 18 21 22 18
13 13 14 16 17 16 16 17 17 18 19 18 16 16 15 15 15 15 15 16 17 17 19 18 17 17 17 14 13 13 15 21 14 15 15 16 17 18 20 19 20 22
Wind_Speed
6 5 5 5 4 3 4 4 4 4 2 2 2 2 1 2 3 3 4 2 2 2 5 8 8 9 4 4 5 4 4 5 5 5 6 6 6 7 7 8 8 7
7 6 5 4 4 3 3 2 2 2 3 3 1 1 1 1 3 3 2 3 3 4 5 4 5 8 7 5 5 5 5 5 6 5 6 8 7 7 8 8 9 8
6 6 6 5 5 5 4 3 2 1 1 3 2 1 1 2 3 3 2 0 3 4 4 4 5 8 7 6 5 5 5 6 6 6 7 8 8 8 8 8 6 7
7 6 6 6 5 6 4 4 4 3 1 0 3 2 2 3 3 2 1 2 2 3 4 4 3 7 8 5 5 5 5 6 6 6 6 6 7 9 9 7 7 8
7 7 6 6 5 5 6 6 5 5 4 1 1 2 2 1 1 1 2 3 3 2 2 3 4 6 5 5 5 5 7 7 6 6 6 7 7 8 8 8 10 12
8 7 6 6 6 6 6 6 6 6 6 5 2 2 2 2 2 2 2 3 2 2 3 4 4 5 5 5 5 6 6 7 7 7 8 8 8 8 7 8 9 9
8 8 7 6 6 6 6 6 6 6 6 6 5 4 3 4 5 5 4 4 4 3 4 4 4 5 5 4 5 7 7 7 7 8 9 8 8 9 9 8 9 10
8 7 7 6 6 5 6 6 5 5 5 6 7 6 5 5 7 7 5 6 6 5 4 3 3 4 4 6 6 6 7 6 6 8 9 9 9 9 9 8 9 10
7 7 7 7 7 5 5 5 5 5 5 5 6 7 7 6 6 7 7 7 7 7 6 5 4 4 4 5 5 6 7 6 6 6 8 9 10 10 10 9 10 10
7 6 6 6 5 4 4 4 4 4 4 5 4 5 6 7 8 8 8 7 7 8 7 6 6 5 4 5 6 7 7 7 8 11 9 9 10 9 9 9 10 10
7 6 6 5 5 5 4 4 4 4 4 5 4 5 5 5 6 8 8 8 7 8 8 8 8 7 6 6 6 6 7 7 8 8 7 9 9 9 9 9 9 10
6 7 7 6 5 5 6 5 4 4 5 5 5 6 6 6 7 7 7 8 9 8 8 8 8 8 8 8 7 7 8 8 9 9 8 9 8 10 10 9 9 9
7 7 7 6 5 5 4 4 4 4 5 6 5 6 5 5 5 7 8 8 8 8 9 9 8 8 9 9 10 10 11 10 9 10 10 9 8 9 9 9 9 8
7 7 7 6 4 5 4 3 4 4 5 6 5 5 5 6 7 7 6 7 7 8 8 9 10 11 11 10 11 11 10 10 10 10 10 10 9 9 8 8 9 9
6 6 6 6 7 6 4 5 5 5 6 6 6 6 6 5 6 6 7 8 7 8 8 7 7 7 8 10 11 13 12 12 12 12 10 8 8 8 8 9 8 8
6 5 5 6 7 6 6 6 6 6 5 6 6 6 6 5 6 7 6 6 7 6 6 6 6 7 3 8 6 6 7 8 11 11 11 10 9 8 8 9 9 9
6 6 5 5 6 6 7 8 7 6 6 6 5 5 5 5 6 7 6 4 6 5 5 6 3 5 11 10 11 11 8 8 7 10 11 11 11 10 9 8 8 8
6 7 6 6 6 7 8 8 7 6 5 6 6 6 7 6 6 6 7 2 2 5 3 6 8 10 12 12 9 7 5 6 8 9 9 10 11 11 10 9 8 8
6 6 6 6 7 7 8 7 6 6 7 7 6 6 6 6 6 6 7 8 3 6 9 7 8 11 11 11 8 8 4 7 8 9 9 10 11 11 11 11 9 8
6 6 6 6 7 7 7 7 7 8 7 6 6 6 6 6 6 7 7 7 7 7 8 9 9 11 12 12 11 9 7 6 8 9 9 9 10 10 9 10 10 10
6 6 6 7 7 7 7 7 8 7 7 6 5 5 6 6 6 6 6 7 7 7 7 8 8 11 12 12 13 13 12 9 7 8 7 8 9 9 10 9 10 9
6 6 7 7 6 6 7 7 7 7 7 6 5 5 4 4 5 5 5 6 6 5 6 7 8 10 11 12 13 14 14 8 6 5 5 7 7 8 8 9 9 10
6 6 6 6 7 7 7 7 7 7 6 5 5 5 4 5 4 4 5 5 6 6 4 5 7 10 13 13 13 15 11 5 5 5 6 7 7 7 8 9 9 10
5 5 6 7 7 7 8 7 7 6 6 5 5 5 5 4 4 4 4 5 6 6 6 4 6 9 12 12 13 15 13 6 4 5 5 6 7 7 7 8 9 9
5 5 6 6 6 7 7 8 8 7 7 5 5 4 4 4 4 4 4 4 5 5 7 5 4 8 11 10 12 13 12 7 4 5 4 4 5 6 6 7 7 7
5 5 5 6 6 6 7 6 7 7 7 6 5 5 5 5 4 3 4 4 4 4 5 5 5 6 8 8 9 10 12 10 4 4 4 5 6 6 6 6 6 7
Wind_Direction
333 330 328 329 334 356 13 4 4 351 11 56 67 56 346 68 111 108 117 141 125 234 242 228 235 244 227 190 174 193 183 191 199 200 201 207 219 224 225 222 227 232
332 330 316 315 312 330 336 354 2 5 7 3 8 60 2 48 76 78 120 142 146 205 233 240 250 245 232 211 189 198 199 196 204 197 204 209 214 217 220 225 227 228
326 324 315 308 308 311 315 319 308 359 27 335 345 5 21 15 32 46 24 130 189 217 230 240 233 239 235 220 205 209 210 202 206 203 209 210 214 220 219 210 229 238
324 321 313 310 296 291 294 297 295 276 183 328 319 348 22 17 19 15 349 300 242 226 221 240 256 250 241 223 211 215 222 219 210 205 211 217 216 219 221 202 213 235
319 314 312 307 299 291 289 281 275 277 278 258 201 314 331 18 34 355 315 254 245 256 248 242 240 237 251 232 218 222 226 229 219 207 211 219 222 225 222 221 211 216
317 316 311 305 300 298 292 279 276 271 268 265 232 209 241 233 247 212 226 274 252 234 236 243 240 242 241 237 224 230 231 228 222 214 217 217 220 220 226 221 224 224
323 319 314 301 298 295 287 283 274 270 265 266 254 242 218 240 231 218 209 221 257 242 238 228 242 241 238 242 226 225 226 233 230 223 221 222 222 225 221 226 228 229
321 316 306 306 300 291 282 283 283 275 270 258 258 250 234 239 247 236 213 208 221 235 236 234 229 237 238 237 239 234 228 226 237 232 230 228 222 224 224 225 229 236
317 314 312 307 301 293 287 287 287 286 272 265 259 254 244 243 248 242 235 229 225 218 214 223 236 248 251 250 247 249 242 231 236 237 230 234 228 222 222 218 224 229
324 322 309 305 303 299 294 290 292 284 277 262 259 264 265 253 245 246 241 241 241 234 215 204 215 229 240 247 251 245 245 245 229 235 233 235 235 230 225 220 222 224
334 329 325 323 316 317 315 308 299 295 292 291 282 270 262 256 252 251 248 245 246 242 235 218 201 206 215 216 218 226 232 234 236 237 241 242 244 242 234 228 224 225
337 332 333 326 322 311 308 304 307 303 296 289 293 291 285 275 262 256 254 249 240 242 245 243 222 210 219 219 214 212 224 231 233 231 235 242 243 247 242 229 229 232
330 332 331 322 317 312 307 321 343 344 314 300 290 279 271 275 279 269 257 253 255 257 249 234 230 230 232 229 227 222 222 221 221 230 231 235 237 244 250 251 245 241
330 328 324 327 328 301 313 340 344 326 319 315 312 305 294 275 265 257 256 260 255 248 252 258 247 231 229 236 234 233 232 230 231 226 227 229 232 234 239 246 248 246
331 329 333 328 316 307 334 355 346 342 343 341 327 329 325 328 312 284 263 248 247 242 242 245 252 268 247 238 239 236 231 235 233 233 232 231 229 231 235 238 239 247
336 333 340 329 321 328 336 329 325 335 340 338 340 339 328 322 327 317 284 248 242 241 238 239 239 239 287 26 0 337 297 250 235 235 235 236 237 239 242 242 243 246
340 337 342 333 332 336 340 337 330 327 330 334 340 348 330 337 339 336 313 263 237 235 223 220 233 3 35 35 5 348 317 294 270 240 236 239 238 240 243 240 247 251
341 339 338 336 334 340 342 335 336 332 328 334 344 358 353 348 343 350 332 301 249 223 213 74 59 25 23 32 23 356 310 290 257 252 247 242 240 240 240 241 240 238
345 343 340 342 342 344 337 337 343 344 352 344 348 344 353 348 5 4 4 358 1 63 71 62 60 29 21 23 17 358 335 270 236 245 249 247 246 244 242 239 239 241
345 341 343 347 345 340 342 343 356 360 353 349 341 343 354 12 10 12 15 24 52 66 66 56 45 23 17 12 8 350 347 306 251 243 244 251 254 252 252 251 248 248
355 359 353 352 348 345 341 356 1 356 359 356 348 347 354 2 16 19 24 31 53 67 64 58 44 25 21 9 3 351 335 302 254 245 243 244 246 251 256 259 256 254
12 11 4 359 352 345 358 5 357 359 1 359 350 353 5 8 16 25 33 37 39 62 88 70 56 36 24 16 4 355 329 290 260 257 257 252 249 251 249 247 248 245
12 11 18 10 6 7 7 8 4 7 9 3 356 4 10 13 10 22 28 35 41 38 47 78 55 39 30 16 5 356 336 302 289 272 261 256 259 257 256 254 257 259
13 9 14 17 23 18 12 8 12 13 13 7 5 359 12 15 6 27 31 34 32 38 27 61 75 55 40 19 4 357 337 313 274 256 245 269 268 263 263 265 260 264
19 19 17 19 20 23 19 12 4 11 7 8 7 11 22 21 16 26 29 38 35 42 40 28 64 77 57 34 9 1 350 327 331 316 316 302 300 290 294 287 288 262
31 23 20 16 15 9 2 8 10 2 8 354 12 15 18 21 21 28 34 40 37 39 39 39 30 42 73 53 26 4 359 334 342 349 329 320 300 299 296 285 282 277